EW8444 Weather Reports


Display with metric or nautical units.
time (UTC)temp
F
wind
direction
speed
MPH
gust
MPH
rain 1hr
in
rain 24hr
in
rain mn
in
humidity
%
barometer
mb
20260503173506 59 5 0.0 3.0 0.00 0.00 0.00 36 1018.7
20260503172959 59 299 3.0 5.0 0.00 0.00 0.00 37 1018.7
20260503172500 59 10 1.0 3.0 0.00 0.00 0.00 36 1018.8
20260503172003 59 5 1.0 8.0 0.00 0.00 0.00 36 1018.8
20260503171500 59 283 7.0 7.0 0.00 0.00 0.00 37 1018.8
20260503171009 59 14 3.0 5.0 0.00 0.00 0.00 36 1018.8
20260503170505 59 24 1.0 5.0 0.00 0.00 0.00 37 1018.9
20260503150919 52 0 0.0 4.0 0.00 0.00 0.00 44 1019.8
20260503150422 52 5 0.0 7.0 0.00 0.00 0.00 43 1019.9
20260503131416 47 299 2.0 5.0 0.00 0.00 0.00 62 1019.5
20260503130916 46 19 1.0 5.0 0.00 0.00 0.00 65 1019.5
20260503130419 45 21 1.0 5.0 0.00 0.00 0.00 69 1019.6
20260503110416 37 11 0.0 0.0 0.00 0.00 0.00 85 1018.7
20260503090416 36 11 0.0 0.0 0.00 0.00 0.00 80 1018.0
20260503081422 38 11 0.0 0.0 0.00 0.00 0.00 80 1017.7
20260503080919 38 11 0.0 0.0 0.00 0.00 0.00 80 1017.6
20260503080416 38 11 0.0 0.0 0.00 0.00 0.00 79 1017.6
20260503072922 40 11 0.0 0.0 0.00 0.00 0.00 75 1017.5
20260503072416 40 11 0.0 0.0 0.00 0.00 0.00 75 1017.5
20260503071922 40 11 0.0 0.0 0.00 0.00 0.00 75 1017.5
20260503071419 40 11 0.0 0.0 0.00 0.00 0.00 75 1017.5
20260503070916 40 11 0.0 0.0 0.00 0.00 0.00 75 1017.5
20260503070416 41 11 0.0 0.0 0.00 0.00 0.00 74 1017.4
20260503054916 43 13 0.0 0.0 0.00 0.00 0.00 69 1017.3
20260503054419 43 13 0.0 1.0 0.00 0.00 0.00 69 1017.3
20260503053916 43 13 0.0 0.0 0.00 0.00 0.00 69 1017.4
20260503053416 43 13 0.0 1.0 0.00 0.00 0.00 68 1017.5
20260503052916 43 13 0.0 1.0 0.00 0.00 0.00 68 1017.5
20260503052416 43 13 0.0 3.0 0.00 0.00 0.00 68 1017.5
20260503051916 43 5 1.0 2.0 0.00 0.00 0.00 68 1017.5
20260503051419 43 9 1.0 2.0 0.00 0.00 0.00 69 1017.4
20260503050922 42 12 0.0 2.0 0.00 0.00 0.00 70 1017.4
20260503050416 42 12 0.0 1.0 0.00 0.00 0.00 70 1017.4
20260503045919 42 12 1.0 1.0 0.00 0.00 0.00 71 1017.4
20260503045422 42 12 0.0 1.0 0.00 0.00 0.00 71 1017.4
20260503044925 42 12 0.0 1.0 0.00 0.00 0.00 70 1017.4
20260503044419 42 12 0.0 0.0 0.00 0.00 0.00 69 1017.4
20260503043919 42 12 0.0 0.0 0.00 0.00 0.00 69 1017.4
20260503043422 42 12 0.0 0.0 0.00 0.00 0.00 69 1017.4
20260503042916 42 12 0.0 0.0 0.00 0.00 0.00 69 1017.4
20260503042419 42 12 0.0 0.0 0.00 0.00 0.00 69 1017.3
20260503041922 42 12 0.0 0.0 0.00 0.00 0.00 69 1017.2
20260503041419 43 12 0.0 0.0 0.00 0.00 0.00 69 1017.1
20260503040919 43 12 0.0 0.0 0.00 0.00 0.00 69 1017.0
20260503040416 43 12 0.0 0.0 0.00 0.00 0.00 68 1017.1
20260503035922 43 12 0.0 0.0 0.00 0.00 0.00 68 1017.0
20260503035416 43 12 0.0 1.0 0.00 0.00 0.00 68 1017.0
20260503034916 43 12 0.0 0.0 0.00 0.00 0.00 68 1017.0
20260503034419 43 12 0.0 1.0 0.00 0.00 0.00 68 1016.9
20260503033916 43 12 0.0 0.0 0.00 0.00 0.00 68 1016.9
20260503033416 43 12 0.0 1.0 0.00 0.00 0.00 68 1016.8
20260503032916 43 12 0.0 1.0 0.00 0.00 0.00 68 1016.9
20260503032416 43 12 0.0 0.0 0.00 0.00 0.00 67 1016.9
20260503031919 44 12 0.0 0.0 0.00 0.00 0.00 67 1016.9
20260503031419 44 12 0.0 0.0 0.00 0.00 0.00 66 1016.9
20260503030919 44 12 0.0 0.0 0.00 0.00 0.00 66 1016.7
20260503030419 44 12 0.0 0.0 0.00 0.00 0.00 65 1016.7
20260503025919 44 12 0.0 0.0 0.00 0.00 0.00 64 1016.7
20260503025416 45 12 0.0 0.0 0.00 0.00 0.00 64 1016.7
20260503024916 45 12 0.0 0.0 0.00 0.00 0.00 64 1016.6
20260503024419 45 12 0.0 0.0 0.00 0.00 0.00 64 1016.6
20260503023916 45 12 0.0 0.0 0.00 0.00 0.00 64 1016.5
20260503023419 45 12 0.0 0.0 0.00 0.00 0.00 62 1016.5
20260503022919 46 12 0.0 0.0 0.00 0.00 0.00 62 1016.5
20260503022416 46 12 0.0 0.0 0.00 0.00 0.00 62 1016.4
20260503021922 46 12 0.0 0.0 0.00 0.00 0.00 61 1016.4
20260503021416 46 12 0.0 1.0 0.00 0.00 0.00 61 1016.3
20260503020916 46 12 0.0 1.0 0.00 0.00 0.00 60 1016.2
20260503020419 46 12 0.0 1.0 0.00 0.00 0.00 60 1016.2
20260503015916 47 12 0.0 1.0 0.00 0.00 0.00 59 1016.2
20260503015422 47 12 0.0 1.0 0.00 0.00 0.00 60 1016.2
20260503014922 47 12 0.0 1.0 0.00 0.00 0.00 59 1016.0
20260503014416 48 12 0.0 1.0 0.00 0.00 0.00 58 1015.9
20260503013916 48 12 0.0 0.0 0.00 0.00 0.00 56 1015.9
20260503013416 49 12 0.0 0.0 0.00 0.00 0.00 56 1015.9
20260503012922 49 12 0.0 0.0 0.00 0.00 0.00 55 1015.7
20260503012422 50 12 0.0 0.0 0.00 0.00 0.00 54 1015.6
20260503011916 50 12 0.0 0.0 0.00 0.00 0.00 55 1015.6
20260503011416 51 12 0.0 0.0 0.00 0.00 0.00 51 1015.5
20260503010919 51 12 1.0 1.0 0.00 0.00 0.00 51 1015.6
20260503010416 52 12 0.0 1.0 0.00 0.00 0.00 48 1015.5
20260503005916 52 12 0.0 2.0 0.00 0.00 0.00 47 1015.4
20260503005416 52 12 1.0 2.0 0.00 0.00 0.00 46 1015.4
20260503004916 53 12 1.0 3.0 0.00 0.00 0.00 45 1015.3
20260503004416 53 11 0.0 2.0 0.00 0.00 0.00 45 1015.2
20260503003916 53 11 1.0 4.0 0.00 0.00 0.00 44 1015.2
20260503003416 53 11 3.0 3.0 0.00 0.00 0.00 44 1015.1
20260503002919 53 11 1.0 3.0 0.00 0.00 0.00 43 1015.0
20260503002416 54 10 1.0 3.0 0.00 0.00 0.00 43 1014.9
20260503001916 54 13 1.0 3.0 0.00 0.00 0.00 42 1014.8
20260503001419 54 327 2.0 8.0 0.00 0.00 0.00 42 1014.8
20260503000916 54 5 1.0 8.0 0.00 0.00 0.00 41 1014.7
20260503000416 55 344 1.0 5.0 0.00 0.00 0.00 41 1014.6
20260502235919 55 51 4.0 6.0 0.00 0.00 0.00 40 1014.4
20260502235416 55 78 1.0 4.0 0.00 0.00 0.00 40 1014.3
20260502234922 56 336 1.0 5.0 0.00 0.00 0.00 40 1014.2
20260502234416 56 22 1.0 8.0 0.00 0.00 0.00 39 1014.2
20260502233916 56 13 2.0 4.0 0.00 0.00 0.00 39 1014.2
20260502233422 56 79 3.0 7.0 0.00 0.00 0.00 38 1014.1
20260502232925 56 24 1.0 4.0 0.00 0.00 0.00 39 1014.0
20260502232419 56 11 1.0 7.0 0.00 0.00 0.00 38 1014.0
20260502231922 56 5 3.0 5.0 0.00 0.00 0.00 37 1014.0
20260502231416 57 78 1.0 10.0 0.00 0.00 0.00 37 1013.9
20260502230916 57 50 3.0 8.0 0.00 0.00 0.00 37 1013.9
20260502230416 58 311 2.0 9.0 0.00 0.00 0.00 37 1013.8
20260502225916 58 15 3.0 4.0 0.00 0.00 0.00 36 1013.8
20260502225416 58 289 2.0 6.0 0.00 0.00 0.00 37 1013.7
20260502224916 58 36 4.0 7.0 0.00 0.00 0.00 37 1013.7
20260502224419 58 21 4.0 6.0 0.00 0.00 0.00 36 1013.7
20260502223919 58 325 1.0 8.0 0.00 0.00 0.00 35 1013.6
20260502223416 58 326 1.0 6.0 0.00 0.00 0.00 34 1013.6
20260502222919 59 294 1.0 8.0 0.00 0.00 0.00 34 1013.5
20260502222419 59 300 4.0 11.0 0.00 0.00 0.00 34 1013.4
20260502221916 58 283 3.0 8.0 0.00 0.00 0.00 34 1013.5
20260502221416 58 38 7.0 10.0 0.00 0.00 0.00 34 1013.3
20260502220919 58 66 8.0 8.0 0.00 0.00 0.00 35 1013.1
20260502215919 58 310 9.0 7.0 0.00 0.00 0.00 35 1013.0
20260502215416 58 14 2.0 9.0 0.00 0.00 0.00 34 1013.1
20260502214916 58 56 4.0 8.0 0.00 0.00 0.00 35 1013.1
20260502214416 58 57 7.0 10.0 0.00 0.00 0.00 35 1013.0
20260502213919 59 31 3.0 9.0 0.00 0.00 0.00 36 1012.8
20260502213419 59 274 4.0 9.0 0.00 0.00 0.00 33 1012.8
20260502212916 60 24 5.0 8.0 0.00 0.00 0.00 33 1012.7
20260502212416 60 109 1.0 10.0 0.00 0.00 0.00 34 1012.7
20260502211916 60 296 4.0 7.0 0.00 0.00 0.00 35 1012.4
20260502211416 60 355 5.0 15.0 0.00 0.00 0.00 34 1012.6
20260502210919 60 284 2.0 13.0 0.00 0.00 0.00 35 1012.5
20260502210419 59 22 10.0 15.0 0.00 0.00 0.00 37 1012.4
20260502205916 59 296 3.0 6.0 0.00 0.00 0.00 35 1012.4
20260502205416 59 9 1.0 9.0 0.00 0.00 0.00 35 1012.4
20260502204919 59 5 2.0 11.0 0.00 0.00 0.00 33 1012.5
20260502204416 59 269 2.0 5.0 0.00 0.00 0.00 35 1012.4
20260502203925 60 300 3.0 10.0 0.00 0.00 0.00 32 1012.6
20260502203416 60 36 1.0 10.0 0.00 0.00 0.00 34 1012.4
20260502202919 60 313 3.0 10.0 0.00 0.00 0.00 34 1012.4
20260502202416 59 293 3.0 10.0 0.00 0.00 0.00 35 1012.2
20260502201916 58 101 1.0 13.0 0.00 0.00 0.00 34 1012.3
20260502201416 58 5 1.0 6.0 0.00 0.00 0.00 34 1012.4
20260502200916 58 0 1.0 8.0 0.00 0.00 0.00 34 1012.4
20260502200419 59 84 3.0 10.0 0.00 0.00 0.00 34 1012.4
20260502195922 60 227 4.0 8.0 0.00 0.00 0.00 33 1012.4
20260502195416 59 292 3.0 9.0 0.00 0.00 0.00 35 1012.5
20260502194919 58 344 2.0 6.0 0.00 0.00 0.00 36 1012.6
20260502194419 58 25 2.0 6.0 0.00 0.00 0.00 34 1012.7
20260502193916 59 47 3.0 10.0 0.00 0.00 0.00 34 1012.4
20260502193419 60 302 1.0 8.0 0.00 0.00 0.00 34 1012.7
20260502192916 60 5 2.0 9.0 0.00 0.00 0.00 34 1012.6
20260502192416 61 277 5.0 11.0 0.00 0.00 0.00 33 1012.6
20260502191922 61 280 3.0 10.0 0.00 0.00 0.00 32 1012.7
20260502191425 61 355 1.0 15.0 0.00 0.00 0.00 32 1012.6
20260502190916 60 348 6.0 9.0 0.00 0.00 0.00 34 1012.7
20260502190416 60 355 2.0 10.0 0.00 0.00 0.00 31 1012.8
20260502185916 60 27 4.0 9.0 0.00 0.00 0.00 32 1012.7
20260502185416 60 296 1.0 8.0 0.00 0.00 0.00 32 1012.8
20260502184919 61 355 6.0 11.0 0.00 0.00 0.00 30 1012.8
20260502184416 60 304 3.0 5.0 0.00 0.00 0.00 34 1012.7
20260502183916 60 304 2.0 7.0 0.00 0.00 0.00 34 1012.7
20260502183416 59 0 1.0 6.0 0.00 0.00 0.00 34 1012.8
20260502182419 60 5 4.0 10.0 0.00 0.00 0.00 31 1012.8
20260502181916 59 5 3.0 6.0 0.00 0.00 0.00 37 1012.8
20260502181416 59 32 5.0 8.0 0.00 0.00 0.00 33 1012.8
20260502180916 58 83 2.0 9.0 0.00 0.00 0.00 35 1012.8
20260502180416 58 31 2.0 8.0 0.00 0.00 0.00 33 1012.8